TITAN 3C TRANSTAGE R/B, 3432

Orbit data source: Space-Track

TITAN 3C TRANSTAGE R/B, 3432 is space debris in GEO originally from a launch on Thu, 26 Sep 1968 UTC launched from the Air Force Eastern Test Range (AFETR). Debris objects in space refer to the collection of defunct objects orbiting the Earth. Examples of debris include non-operational satellites, rocket bodies, and fragments generated from explosions, collisions, or faulty payload assembly.

Not visible in the next 10 days
Identifier
3432, 1968-081E
Orbit
GEO
Country
Flag of USUS
Related business
Manufacturer
Martin Marietta
Mission
Spacecraft
Bus & Motor
TRANSTAGE, Unknown motor
Mass
~1,950 kg wet, ~1,950 kg dry
Launch date (UTC)
1968-09-26 (57 years ago)
Launch vehicle
Unknown
Launch site
Air Force Eastern Test Range (AFETR)
Object type
Payload
Rocket body
Debris
Shape & HBR
Unknown
Radar Cross Section
Large (>1 m²)

Expand to show TLE details & history
Last TLE update: 19 hours ago

TLE from 19 hours ago
0 TITAN 3C TRANSTAGE R/B
1 03432U 68081E   25347.31916162  .00000071  00000-0  00000-0 0  9993
2 03432   1.5928  44.2523 0095066 278.8927  35.5411  1.01514615120093
Epoch: 2025-12-13T07:39Z
TLE epoch observation values (Epoch: 2025-12-13T07:39:35.563Z)
Latitude
-1.11858°
Longitude
162.1849°
Altitude
35,120.747 km
Speed
3.111 km/s
True Right ascension
23h 57m 19s
True Declination
-1° 07' 03"
Sunlit
Object was in daylight at epoch
Visualization orbit readout
Latitude
Unknown
Longitude
Unknown
Altitude
Unknown
Speed
Unknown
Apparent Right ascension
Unknown
Apparent Declination
Unknown
Sunlit
N/A
Visualization observer readout
Local Sidereal Time
01:35:25
Azimuth
Unknown
Elevation
Unknown
Doppler factor
Unknown
Orbital elements
Apogee altitude
35,840.397 km
Perigee altitude
35,045.247 km
Semi-major axis
41,820.959 km
Eccentricity
0.00951
Inclination
1.5928°
RAAN
44.2523°
Arg. of periapsis
278.8927°
True anomaly
36.18051°
Mean anomaly
35.5411°
Eccentric anomaly
35.86018°
Mean motion
0.25378 °/min
Orbital period
1,418.57 mins
BSTAR
0
Loading maneuver chart data...
Computing Atmospheric mass density...

Documentation

Showing up to 5 results
|